Goodland, KS

10:37 PM MST on January 20, 2017 (GMT -0700)
Goodland

Weather History for KGLD - August, 2013

Change the Weather History Date:

Friday, August 30, 2013

  Actual Average Record
Temperature  
Mean Temperature 83 °F 71 °F  
Max Temperature 102 °F 85 °F 104 °F (1990)
Min Temperature 64 °F 57 °F 42 °F (1964)
Degree Days  
Heating Degree Days 0 1  
Month to date heating degree days 0 4  
Since 1 June heating degree days 38 45  
Since 1 July heating degree days 7 8  
Cooling Degree Days 18 7  
Month to date cooling degree days 311 271  
Year to date cooling degree days 981 825  
Since 1 June cooling degree days 892 784  
Growing Degree Days 33 (Base 50)    
Moisture  
Dew Point 51 °F    
Average Humidity 38    
Maximum Humidity 60    
Minimum Humidity 15    
Precipitation  
Precipitation T in 0.06 in 0.58 in (1971)
Month to date precipitation 0.79 2.63  
Year to date precipitation 8.64 15.83  
Snow  
Snow 0.00 in 0.00 in - ()
Month to date snowfall 0.0 0.0  
Since 1 June snowfall 0.0 0.0  
Since 1 July snowfall 0.0 0.0  
Snow Depth 0.00 in    
Sea Level Pressure  
Sea Level Pressure 29.91 in    
Wind  
Wind Speed 8 mph (North)    
Max Wind Speed 25 mph    
Max Gust Speed 31 mph    
Visibility 10 miles    
Events      
T = Trace of Precipitation, MM = Missing Value Source: NWS Daily Summary

Daily Weather History Graph

Daily Weather History Graph

Search for Another Location

Airport or City:

Trip Planner

Search our weather history database for the weather conditions in past years. The results will help you decide how hot, cold, wet, or windy it might be!

Date:

Astronomy

Aug. 30, 2013 Rise Set
Actual Time 6:13 AM MDT 7:20 PM MDT
Civil Twilight 5:46 AM MDT 7:47 PM MDT
Nautical Twilight 5:13 AM MDT 8:20 PM MDT
Astronomical Twilight 4:38 AM MDT 8:54 PM MDT
Moon 12:54 AM MDT (8/30) 3:36 PM MDT (8/30)
Length of Visible Light 14h 01m
Length of Day
13h 06m
Waning Crescent, 28% of the Moon is Illuminated
Aug 30
Waning Crescent
Sep 5
New
Sep 12
First Quarter
Sep 19
Full
Sep 26
Last Quarter

Hourly Weather History & Observations

Time (MDT) Temp. Heat Index Dew Point Humidity Pressure Visibility Wind Dir Wind Speed Gust Speed Precip Events Conditions
12:53 AM 75.0 °F - 55.0 °F 50% 29.91 in 10.0 mi SW 8.1 mph - N/A   Clear
1:53 AM 72.0 °F - 53.1 °F 51% 29.90 in 10.0 mi WSW 9.2 mph - N/A   Clear
2:53 AM 69.1 °F - 52.0 °F 54% 29.90 in 10.0 mi WSW 5.8 mph - N/A   Clear
3:53 AM 68.0 °F - 51.1 °F 55% 29.90 in 10.0 mi West 8.1 mph - N/A   Clear
4:53 AM 66.0 °F - 48.9 °F 54% 29.91 in 10.0 mi WNW 5.8 mph - N/A   Clear
5:53 AM 64.9 °F - 48.0 °F 54% 29.92 in 10.0 mi West 8.1 mph - N/A   Clear
6:53 AM 66.0 °F - 48.0 °F 52% 29.95 in 10.0 mi West 5.8 mph - N/A   Clear
7:53 AM 72.0 °F - 51.1 °F 48% 29.97 in 10.0 mi WNW 6.9 mph - N/A   Clear
8:53 AM 81.0 °F - 52.0 °F 36% 29.96 in 10.0 mi NNW 6.9 mph - N/A   Clear
9:53 AM 88.0 °F 85.7 °F 53.1 °F 30% 29.96 in 10.0 mi NNE 5.8 mph - N/A   Clear
10:53 AM 93.0 °F 90.6 °F 53.1 °F 26% 29.94 in 10.0 mi East 9.2 mph - N/A   Clear
11:53 AM 96.1 °F - 50.0 °F 21% 29.93 in 10.0 mi Variable 5.8 mph - N/A   Clear
12:53 PM 98.1 °F - 45.0 °F 16% 29.91 in 10.0 mi East 6.9 mph - N/A   Clear
1:53 PM 100.9 °F - 44.1 °F 14% 29.89 in 10.0 mi East 10.4 mph - N/A   Clear
2:53 PM 100.9 °F - 44.1 °F 14% 29.87 in 10.0 mi Variable 5.8 mph - N/A   Clear
3:53 PM 98.1 °F - 45.0 °F 16% 29.86 in 10.0 mi South 6.9 mph - N/A   Clear
4:53 PM 93.9 °F - 48.0 °F 21% 29.87 in 10.0 mi NE 11.5 mph 31.1 mph N/A   Mostly Cloudy
5:53 PM 93.9 °F - 46.9 °F 20% 29.86 in 10.0 mi SE 3.5 mph - N/A   Clear
6:53 PM 90.0 °F - 50.0 °F 25% 29.86 in 10.0 mi South 3.5 mph - N/A   Clear
7:53 PM 84.9 °F - 50.0 °F 30% 29.86 in 10.0 mi Calm Calm - N/A   Clear
8:53 PM 82.9 °F - 52.0 °F 34% 29.87 in 10.0 mi ESE 5.8 mph - N/A   Partly Cloudy
9:53 PM 82.0 °F - 51.1 °F 34% 29.86 in 10.0 mi ENE 9.2 mph - 0.00 in   Clear
10:50 PM 78.8 °F - 60.8 °F 54% 30.07 in 10.0 mi North 20.7 mph 29.9 mph N/A   Mostly Cloudy
10:53 PM 78.1 °F - 61.0 °F 56% 29.91 in 10.0 mi North 16.1 mph 29.9 mph N/A   Overcast
11:53 PM 75.0 °F - 61.0 °F 62% 29.89 in 10.0 mi NE 18.4 mph 25.3 mph N/A   Mostly Cloudy